User: anonymous   Login
Location: Clinton NY
(43.0598°N, 75.3602°W)
Time: 12:05:52
(UTC-04:00)
Language:

Cosmos-2242 - Orbit

View from above orbital plane
View from above orbital plane
View from above satellite
View from above satellite

Ground track
Ground track

The orbit data is extracted from the following two-line orbital elements,

1 22626U 93024A   17179.70373204 +.00000173 +00000-0 +16221-4 0  9994
2 22626 082.5214 030.9650 0020662 083.2283 277.1285 14.87670427307566
Epoch (UTC): 28 June 2017 16:53:22
Eccentricity: 0.0020662
inclination: 82.5214°
perigee height: 591 km
apogee height: 619 km
right ascension of ascending node: 30.9650°
argument of perigee: 83.2283°
revolutions per day: 14.87670427
mean anomaly at epoch: 277.1285°
orbit number at epoch: 30756

The dashed part of the orbit path shows where the satellite is in the earth's shadow,  

DLR